Flag for U.S.A. Weather past 2 weeks in Augusta, Maine, U.S.A.

Now
85 °F

Passing clouds.


Feels Like: 88 °F
Forecast: 64 / 84 °F
Wind: 6 mph from Southwest

Location: Augusta State Airport

Current Time: Aug 27, 2014 at 3:22:49 PM

Latest Report: Aug 27, 2014 at 2:53 PM


Visibility: 10 mi

Pressure: 29.82 "Hg

Humidity: 55%

Dew point: 67 °F

Location of AugustaLocation

Historic Weather in Augusta — Graph

°F

Augusta temperature yesterday

Maximum temperature yesterday: 83 °F (at 1:53 PM)
Minimum temperature yesterday: 60 °F (at 5:53 AM)
Average temperature yesterday: 70 °F

Past Weeks' High & Low Weather Summary

 TemperatureHumidityPressure
High86 °F (Aug 25, 2:53 PM)100% (Aug 13, 11:53 PM)30.16 "Hg (Aug 13, 11:53 PM)
Low50 °F (Aug 19, 5:53 AM)39% (Aug 25, 3:53 PM)29.60 "Hg (Aug 14, 4:53 AM)
Average66 °F78%29.97 "Hg
* Reported Aug 12 1:53 PM — Aug 27 1:53 PM, Augusta, Weather by CustomWeather, © 2014

Note: Actual official high and low records may vary slightly from our data, if they occured in-between our weather recording intervals... More about our weather records

Advertising

Augusta weather history for previous 24 hours

 ConditionsComfort  
Time TempWeatherWind HumidityBarometerVisibility
1:53 PM
Aug 27
85 °FSunny.6 mph50%29.83 "Hg10 mi
12:53 PM83 °FSunny.5 mph51%29.85 "Hg10 mi
11:53 AM82 °FSunny.3 mph56%29.87 "Hg10 mi
10:53 AM79 °FSunny.5 mph65%29.89 "Hg10 mi
9:53 AM76 °FPassing clouds.5 mph67%29.90 "Hg10 mi
8:53 AM70 °FSunny.No wind81%29.91 "Hg10 mi
7:53 AM67 °FSunny.3 mph87%29.92 "Hg10 mi
6:53 AM63 °FClear.5 mph97%29.92 "Hg10 mi
5:53 AM62 °FClear.5 mph96%29.93 "Hg8 mi
4:53 AM63 °FClear.No wind93%29.92 "Hg10 mi
3:53 AM63 °FClear.No wind93%29.93 "Hg10 mi
2:53 AM63 °FClear.3 mph93%29.94 "Hg10 mi
1:53 AM63 °FClear.5 mph97%29.95 "Hg10 mi
12:53 AM63 °FClear.6 mph97%29.96 "Hg10 mi
11:53 PM
Aug 26
64 °FClear.6 mph90%29.98 "Hg10 mi
10:53 PM64 °FClear.6 mph90%29.99 "Hg10 mi
9:53 PM66 °FClear.8 mph81%29.99 "Hg10 mi
8:53 PM67 °FClear.7 mph79%30.01 "Hg10 mi
7:53 PM69 °FSunny.9 mph76%30.01 "Hg10 mi
6:53 PM73 °FSunny.8 mph71%30.02 "Hg10 mi
5:53 PM77 °FSunny.9 mph64%30.02 "Hg10 mi
4:53 PM80 °FSunny.9 mph60%30.03 "Hg10 mi
3:53 PM81 °FSunny.10 mph60%30.05 "Hg10 mi
Weather by CustomWeather, © 2014

See weather overviewHow to use our weather pages